[[{"header":{"parameterUnit":"m.s-1","parameterCategory":1,"la1":30.2992,"la2":30.254,"lo1":-89.0895,"lo2":-89.0443,"dy":0.0025,"dx":0.0025,"nx":19,"ny":19,"refTime":"2026-03-09T03:00:00:Z","depth":0,"parameterNumber":2,"parameterNumberName":"U-component_of_WINDS"},"data":[0,0,0,-0.9579,-0.9577,-0.9493,-0.9493,-0.9403,-0.9402,0,0,0,0,0,0,0,0,0,0,0,-0.9615,-0.9615,-0.9579,-0.9577,-0.9493,-0.9492,-0.9403,-0.9402,0,0,0,0,0,0,0,0,0,0,0,-0.9615,-0.9615,-0.9615,-0.9577,-0.9493,-0.9492,-0.9403,-0.946,0,0,0,0,0,0,0,0,0,0,-0.9539,-0.9583,-0.9615,-0.9615,-0.9576,-0.9493,-0.9492,-0.9462,-0.9456,-0.9449,0,-0.9445,0,-0.9422,-0.9397,-0.9397,0,0,0,-0.9568,-0.9588,-0.9556,-0.9615,-0.9576,-0.9493,-0.9528,-0.9459,-0.9452,-0.9441,-0.9444,-0.944,-0.9421,-0.9397,-0.9396,-0.9383,-0.9383,0,0,-0.9573,-0.9606,-0.956,-0.9552,-0.9567,-0.9531,-0.9526,-0.9454,-0.946,-0.9443,-0.9437,-0.9419,-0.9396,-0.9396,-0.9383,-0.9383,0,0,0,-0.9592,-0.9609,-0.9578,-0.9556,-0.954,-0.9529,-0.9523,-0.9463,-0.945,-0.9436,-0.9418,-0.9396,-0.9395,-0.9382,-0.9383,-0.9433,0,0,0,-0.9595,-0.962,-0.958,-0.96,-0.9541,-0.95,-0.9533,-0.9455,-0.9446,-0.9419,-0.9396,-0.9394,-0.9382,-0.9382,-0.943,-0.9451,0,0,0,-0.9617,-0.9623,-0.9615,-0.9601,-0.9566,-0.95,-0.9483,-0.9452,-0.9435,-0.9397,-0.9394,-0.9381,-0.9382,-0.9428,-0.9447,-0.9458,0,0,0,-0.9649,-0.9659,-0.9616,-0.962,-0.9567,-0.9532,-0.9483,-0.9455,-0.9428,-0.9395,-0.9382,-0.9383,-0.9428,-0.9445,-0.9456,-0.9473,-0.9483,0,0,-0.968,-0.9664,-0.9664,-0.9623,-0.9604,-0.9542,-0.953,-0.9474,-0.944,-0.9404,-0.9403,-0.9431,-0.9447,-0.9457,-0.9527,-0.9535,0,0,0,-0.9684,-0.9685,-0.9673,-0.9649,-0.9607,-0.9573,-0.9516,-0.9495,-0.9463,-0.9428,-0.9436,-0.9444,-0.9449,-0.9456,-0.9463,-0.9465,-0.9387,-0.9387,-0.9387,-0.9774,-0.9731,-0.9729,-0.9676,-0.9654,-0.9595,-0.9573,-0.9535,-0.9497,-0.95,-0.9489,-0.9537,-0.9546,-0.9551,-0.9554,-0.9494,-0.9494,-0.9494,-0.9494,-0.9816,-0.981,-0.9761,-0.974,-0.9695,-0.9677,-0.9621,-0.9595,-0.9572,-0.9541,-0.9543,-0.9514,-0.9561,-0.9562,-0.9498,-0.9497,-0.9497,-0.9496,-0.9496,-0.9871,-0.9861,-0.9836,-0.9799,-0.9775,-0.972,-0.9701,-0.966,-0.962,-0.9622,-0.9607,-0.9606,-0.9601,-0.9618,-0.9618,-0.9618,-0.9618,-0.9618,-0.9619,-0.9938,-0.9909,-0.9898,-0.9855,-0.9836,-0.9804,-0.9746,-0.9725,-0.9691,-0.9663,-0.9662,-0.9625,-0.9574,-0.9562,-0.9621,-0.9621,-0.962,-0.962,-0.962,-0.9997,-0.9978,-0.9961,-0.9942,-0.9889,-0.9868,-0.9816,-0.9777,-0.9754,-0.9746,-0.9708,-0.9677,-0.9657,-0.9651,-0.9641,-0.9717,-0.9717,-0.9717,-0.9717,-1.0045,-1.0031,-1.0005,-0.9977,-0.9944,-0.9896,-0.9879,-0.9834,-0.9784,-0.9767,-0.975,-0.9733,-0.9729,-0.9712,-0.9705,-0.9695,-0.9782,-0.9782,-0.9783,-1.0079,-1.0061,-1.0054,-1.0007,-0.9962,-0.9926,-0.9909,-0.9878,-0.9817,-0.9784,-0.9753,-0.975,-0.9723,-0.9716,-0.9683,-0.9673,-0.9654,0,0]},{"header":{"parameterUnit":"m.s-1","parameterCategory":1,"la1":30.2992,"la2":30.254,"lo1":-89.0895,"lo2":-89.0443,"dy":0.0025,"dx":0.0025,"nx":19,"ny":19,"refTime":"2026-03-09T03:00:00:Z","depth":0,"parameterNumber":3,"parameterNumberName":"V-component_of_WINDS"},"data":[0,0,0,1.7546,1.7547,1.7571,1.7571,1.7608,1.7608,0,0,0,0,0,0,0,0,0,0,0,1.7544,1.7544,1.7546,1.7547,1.7571,1.7571,1.7608,1.7608,0,0,0,0,0,0,0,0,0,0,0,1.7543,1.7544,1.7544,1.7547,1.7571,1.7571,1.7608,1.7587,0,0,0,0,0,0,0,0,0,0,1.7563,1.7565,1.7544,1.7544,1.7547,1.7571,1.7571,1.7586,1.7588,1.76,0,1.7612,0,1.7611,1.7611,1.7611,0,0,0,1.7543,1.7563,1.7565,1.7545,1.7547,1.7571,1.7559,1.7587,1.759,1.7603,1.7612,1.7613,1.7611,1.7611,1.7612,1.7692,1.7692,0,0,1.7542,1.755,1.7564,1.7567,1.7565,1.7558,1.756,1.7589,1.7599,1.7612,1.7614,1.7612,1.7612,1.7612,1.7691,1.7692,0,0,0,1.7541,1.7549,1.7551,1.7566,1.757,1.7559,1.7561,1.7598,1.7598,1.7615,1.7612,1.7612,1.7612,1.7691,1.7692,1.7727,0,0,0,1.754,1.7548,1.7551,1.7556,1.757,1.7584,1.7569,1.7596,1.7599,1.7612,1.7612,1.7613,1.769,1.7691,1.7725,1.7742,0,0,0,1.7541,1.7548,1.7554,1.7556,1.7567,1.7584,1.7585,1.7596,1.7598,1.7611,1.7613,1.769,1.7691,1.7723,1.7739,1.7767,0,0,0,1.7543,1.7584,1.7554,1.7598,1.7567,1.7605,1.7585,1.7613,1.7629,1.7612,1.769,1.7691,1.7722,1.7737,1.7765,1.7792,1.7804,0,0,1.7599,1.7591,1.7616,1.759,1.7637,1.7601,1.7652,1.7659,1.7652,1.7679,1.7681,1.7726,1.7739,1.7766,1.7867,1.7877,0,0,0,1.7636,1.7655,1.7665,1.7681,1.7688,1.7695,1.7693,1.7696,1.7718,1.7668,1.7742,1.775,1.7766,1.7778,1.7787,1.78,1.7698,1.7697,1.7697,1.7726,1.7716,1.7758,1.7752,1.7768,1.7766,1.7778,1.7781,1.7765,1.7783,1.7791,1.7854,1.7869,1.7875,1.7889,1.7804,1.7804,1.7804,1.7804,1.7807,1.7832,1.7812,1.7845,1.7835,1.7862,1.7862,1.785,1.7874,1.7846,1.786,1.7831,1.7886,1.7898,1.7807,1.7807,1.7806,1.7806,1.7806,1.7865,1.7875,1.7878,1.7902,1.792,1.7912,1.7937,1.7926,1.7915,1.7929,1.7937,1.7936,1.7935,1.7933,1.7933,1.7934,1.7934,1.7934,1.7934,1.7924,1.7927,1.7949,1.7961,1.797,1.7981,1.798,1.7989,1.7996,1.7986,1.7986,1.797,1.7893,1.7874,1.7937,1.7937,1.7936,1.7936,1.7936,1.8011,1.799,1.8025,1.8035,1.8047,1.8067,1.8053,1.8073,1.8078,1.8091,1.8072,1.8016,1.8007,1.8,1.7985,1.8073,1.8073,1.8073,1.8073,1.8061,1.8055,1.8089,1.8106,1.812,1.8111,1.8151,1.8151,1.8147,1.815,1.8136,1.8114,1.8108,1.8102,1.8094,1.8079,1.8189,1.8189,1.8189,1.8114,1.811,1.8146,1.8143,1.8152,1.8161,1.8198,1.8217,1.8208,1.8194,1.8153,1.8148,1.8113,1.8102,1.8086,1.8073,1.8046,0,0]}]]